Location: Newark
(49.3389°N, 3.5728°E)
Time: 11:05:46
(UTC+00:00)

Envisat - Visible Passes

Search period start: 10 December 2019 00:00
Search period end: 20 December 2019 00:00
Orbit: 764 x 766 km, 98.1° (Epoch: 10 December)

Date Brightness Start Highest point End Pass type
(mag) Time Alt. Az. Time Alt. Az. Time Alt. Az.
10 Dec 4.0 06:20:13 10° NNE 06:25:12 52° E 06:30:09 10° S visible
10 Dec 3.1 17:38:52 10° SSE 17:43:57 81° WSW 17:49:04 10° NNW visible
10 Dec 6.1 19:21:50 10° WSW 19:23:48 12° W 19:25:46 10° WNW visible
11 Dec 5.3 05:43:55 10° NE 05:48:10 26° E 05:52:24 10° SSE visible
11 Dec 3.1 17:02:20 10° SE 17:07:14 51° ENE 17:12:10 10° N visible
11 Dec 5.2 18:42:25 10° SSW 18:46:33 25° W 18:50:42 10° NW visible
12 Dec 6.1 05:08:39 10° ENE 05:10:56 13° E 05:13:13 10° ESE visible
12 Dec 3.1 06:45:37 10° NNE 06:50:45 85° ESE 06:55:51 10° SSW visible
12 Dec 3.9 16:26:30 10° ESE 16:30:44 27° ENE 16:34:58 10° N visible
12 Dec 3.9 18:04:35 10° S 18:09:30 49° W 18:14:28 10° NNW visible
13 Dec 4.4 06:09:01 10° NNE 06:13:52 42° E 06:18:40 10° SSE visible
13 Dec 2.9 17:27:35 10° SSE 17:32:40 83° ENE 17:37:46 10° NNW visible
13 Dec 5.9 19:09:27 10° WSW 19:12:21 15° W 19:15:16 10° NW visible
14 Dec 5.6 05:32:55 10° NE 05:36:46 21° E 05:40:37 10° SE visible
14 Dec 3.3 16:51:15 10° SE 16:56:00 42° ENE 17:00:48 10° N visible
14 Dec 4.9 18:30:43 10° SSW 18:35:10 30° W 18:39:39 10° NNW visible
15 Dec 6.4 04:59:03 10° ENE 04:59:28 10° E 04:59:54 10° E visible
15 Dec 3.4 06:34:22 10° NNE 06:39:27 70° ESE 06:44:31 10° S visible
15 Dec 4.1 16:15:39 10° ESE 16:19:33 23° ENE 16:23:28 10° N visible
15 Dec 3.5 17:53:10 10° S 17:58:11 61° W 18:03:14 10° NNW visible
16 Dec 4.8 05:57:52 10° NNE 06:02:31 34° E 06:07:07 10° SSE visible
16 Dec 2.9 17:16:22 10° SSE 17:21:24 68° ENE 17:26:28 10° N visible
16 Dec 5.6 18:57:24 10° SW 19:00:56 19° W 19:04:28 10° NW visible
17 Dec 5.9 05:22:00 10° NE 05:25:22 17° E 05:28:42 10° SE visible
17 Dec 3.6 16:40:14 10° SE 16:44:48 35° ENE 16:49:24 10° N visible
17 Dec 4.5 18:19:07 10° SSW 18:23:47 37° W 18:28:31 10° NNW visible
18 Dec 3.8 06:23:07 10° NNE 06:28:09 57° E 06:33:08 10° S visible
18 Dec 3.2 17:41:48 10° S 17:46:52 75° WSW 17:51:59 10° NNW visible
18 Dec 6.2 19:25:24 10° W 19:26:47 11° W 19:28:12 10° WNW visible
19 Dec 5.2 05:46:46 10° NE 05:51:08 28° E 05:55:30 10° SSE visible
19 Dec 3.0 17:05:12 10° SSE 17:10:09 56° ENE 17:15:08 10° N visible
19 Dec 5.3 18:45:32 10° SW 18:49:31 23° W 18:53:32 10° NW visible
